Location: Bauerbach
(50.4985°N, 10.3912°E)
Time: 17:49:47
(UTC+00:00)

ATLAS 2AS CENTAUR R/B - Pass Details

Date: 13 January 2026
Orbit: 1050 x 1161 km, 63.7° (Epoch: 16 February)

Event Time Altitude Azimuth Distance (km) Brightness Sun altitude
Exits shadow 03:19:11 30° 15° (NNE) 1,786 4.0 -36.6°
Maximum altitude 03:19:13 30° 15° (NNE) 1,786 4.0 -36.6°
Drops below altitude 10° 03:25:05 10° 76° (ENE) 2,868 5.7 -35.7°
Sets 03:28:06 0° 87° (E) 3,822 6.6 -35.2°
